N1LTP Weather Reports


Display with metric or nautical units.
time (UTC)temp
F
wind
direction
speed
MPH
gust
MPH
rain 1hr
in
rain 24hr
in
rain mn
in
humidity
%
barometer
mb
20260505230052 61 61 2.0 8.0 0.00 0.07 0.07 72 1008.6
20260505224650 61 175 0.0 4.0 0.00 0.07 0.07 72 1008.6
20260505223051 62 184 0.0 5.0 0.00 0.07 0.07 70 1008.6
20260505220048 64 11 2.0 5.0 0.00 0.07 0.07 67 1008.5
20260505214547 65 158 3.0 6.0 0.00 0.07 0.07 65 1008.3
20260505213048 66 163 1.0 8.0 0.00 0.07 0.07 64 1008.2
20260505211547 67 163 2.0 6.0 0.00 0.07 0.07 63 1008.2
20260505210045 67 213 1.0 10.0 0.00 0.07 0.07 62 1007.9
20260505204544 68 138 1.0 6.0 0.00 0.07 0.07 61 1008.1
20260505203049 69 144 2.0 11.0 0.00 0.07 0.07 59 1008.2
20260505201546 70 167 3.0 6.0 0.00 0.07 0.07 58 1008.2
20260505200041 70 163 2.0 9.0 0.00 0.07 0.07 57 1008.1
20260505194547 71 130 2.0 10.0 0.00 1.23 0.07 56 1008.2
20260505193100 72 242 2.0 9.0 0.00 1.23 0.07 56 1008.4
20260505191541 72 161 2.0 7.0 0.00 1.23 0.07 55 1008.2
20260505190041 73 171 3.0 8.0 0.00 1.23 0.07 55 1008.3
20260505184537 74 160 2.0 11.0 0.00 2.06 0.07 52 1008.3
20260505183035 74 117 2.0 8.0 0.00 2.06 0.07 53 1008.3
20260505181534 75 159 3.0 8.0 0.00 2.06 0.07 51 1008.6
20260505180037 75 149 4.0 8.0 0.00 2.06 0.07 52 1008.7
20260505174528 74 336 3.0 5.0 0.00 2.06 0.07 53 1008.9
20260505173026 74 292 2.0 10.0 0.00 2.06 0.07 55 1009.2
20260505171525 73 143 2.0 7.0 0.00 2.06 0.07 57 1009.1
20260505170024 72 121 2.0 5.0 0.00 2.06 0.07 58 1009.2
20260505164523 72 182 4.0 9.0 0.00 2.06 0.07 57 1009.5
20260505163019 74 271 1.0 7.0 0.00 2.06 0.07 59 1009.7
20260505161519 73 95 1.0 8.0 0.00 2.06 0.07 59 1009.7
20260505153018 72 209 1.0 5.0 0.00 2.06 0.07 60 1009.6
20260505151512 72 247 1.0 5.0 0.00 2.06 0.07 60 1009.6
20260505124536 59 131 1.0 5.0 0.00 1.99 0.00 79 1010.6
20260505123044 58 153 1.0 6.0 0.00 1.99 0.00 81 1010.7
20260505121529 56 321 1.0 5.0 0.00 1.99 0.00 83 1010.5
20260505120035 55 308 1.0 4.0 0.00 1.99 0.00 86 1010.4
20260505114519 53 155 0.0 5.0 0.00 1.99 0.00 90 1010.6
20260505113015 52 81 0.0 3.0 0.00 1.99 0.00 94 1010.5
20260505111523 50 93 0.0 2.0 0.00 1.99 0.00 96 1010.3
20260505101505 45 48 0.0 0.0 0.00 1.99 0.00 94 1010.2
20260505100004 45 48 0.0 0.0 0.00 1.99 0.00 93 1010.2
20260505094501 45 48 0.0 1.0 0.00 1.99 0.00 93 1010.2
20260505093101 45 48 0.0 0.0 0.00 1.99 0.00 93 1010.2
20260505091621 45 48 0.0 1.0 0.00 1.99 0.00 92 1010.3
20260505090122 45 48 0.0 0.0 0.00 1.99 0.00 93 1010.4
20260505084613 46 48 0.0 1.0 0.00 1.99 0.00 93 1010.4
20260505083107 46 47 0.0 0.0 0.00 1.99 0.00 92 1010.5
20260505081601 46 47 0.0 0.0 0.00 1.99 0.00 92 1010.5
20260505074550 46 47 0.0 0.0 0.00 1.99 0.00 92 1010.5
20260505073054 47 47 0.0 1.0 0.00 1.99 0.00 91 1010.6
20260505071558 47 47 0.0 0.0 0.00 1.99 0.00 91 1010.7
20260505070051 47 47 0.0 0.0 0.00 1.99 0.00 90 1010.6
20260505064544 48 47 0.0 2.0 0.00 1.99 0.00 90 1010.6
20260505063050 48 47 0.0 2.0 0.00 1.99 0.00 89 1010.8
20260505061541 48 46 0.0 1.0 0.00 1.99 0.00 88 1010.8
20260505060055 48 46 0.0 2.0 0.00 1.99 0.00 88 1010.8
20260505054537 49 42 0.0 1.0 0.00 1.99 0.00 87 1010.8
20260505053038 49 28 0.0 2.0 0.00 1.99 0.00 87 1010.8
20260505051535 49 90 0.0 1.0 0.00 1.99 0.00 86 1010.8
20260505041536 50 93 0.0 3.0 0.00 1.99 0.00 83 1011.0
20260505040027 51 101 0.0 2.0 0.00 1.99 0.00 81 1011.0
20260505034527 51 149 0.0 2.0 0.00 1.99 1.99 81 1011.0
20260505033026 51 130 0.0 3.0 0.00 1.99 1.99 80 1010.9
20260505031526 51 140 1.0 2.0 0.00 1.99 1.99 80 1010.9
20260505030026 52 110 0.0 3.0 0.00 1.99 1.99 79 1011.1
20260505024524 52 187 0.0 3.0 0.00 1.99 1.99 78 1011.1
20260505023024 52 106 0.0 2.0 0.00 1.99 1.99 77 1011.1
20260505021524 53 119 0.0 2.0 0.00 1.99 1.99 76 1011.1
20260505020034 53 264 0.0 2.0 0.00 1.99 1.99 75 1011.1
20260505014532 54 349 0.0 2.0 0.00 1.99 1.99 73 1011.0
20260505013030 55 279 0.0 3.0 0.00 1.99 1.99 71 1010.9
20260505011533 55 190 0.0 3.0 0.00 1.99 1.99 69 1010.7
20260505010021 56 71 1.0 5.0 0.00 1.99 1.99 67 1010.4
20260505004525 56 268 0.0 2.0 0.00 1.99 1.99 65 1010.1
20260505003036 57 294 0.0 7.0 0.00 1.99 1.99 63 1009.9
20260505001522 57 101 0.0 4.0 0.00 1.99 1.99 61 1009.5
20260505000024 58 235 1.0 4.0 0.00 1.99 1.99 59 1009.2
20260504234519 59 96 1.0 4.0 0.00 1.99 1.99 57 1009.0
20260504233018 59 238 1.0 5.0 0.00 1.99 1.99 57 1008.8
20260504231519 60 144 2.0 7.0 0.00 1.99 1.99 54 1008.6